Weather Roundup
Issued by NWS

Home | Current Version | Previous Version | Text Only | Print | Product List | Glossary On
Versions: 1 2 3 4 5 6 7 8 9 10 11 12 13 14 15 16 17 18 19 20 21 22 23 24 25 26 27 28 29 30 31 32 33 34 35 36 37 38 39 40 41 42 43 44 45 46 47 48 49 50
351
NZUS93 KARX 260510
HRRWXR

CURRENT HOURLY OBSERVATIONS ACROSS
MUCH OF THE UPPER MISSISSIPPI VALLEY
NATIONAL WEATHER SERVICE LA CROSSE WI
1200 AM CDT TUE JUL 26 2016


...SOUTHEAST MINNESOTA...


CITY           SKY/WX    TMP DP  RH WIND       PRES   REMARKS
ROCHESTER      CLEAR     67  65  93 SW6       30.09R
ROCHESTER/MAYO FAIR      72  66  81 CALM      30.08R
WINONA         PTCLDY    70  66  88 CALM      30.06R
AUSTIN         CLEAR     66  63  88 CALM      30.09S
ALBERT LEA     CLEAR     70  68  94 CALM      30.09S
DODGE CENTER   CLEAR     66  63  88 W3        30.09R
PRESTON        CLEAR     67  64  87 SW6       30.09S
OWATONNA       CLEAR     66  63  88 CALM      30.08R
FARIBAULT      CLEAR     66  64  94 CALM      30.07S
$$

...ELSEWHERE IN MINNESOTA...


CITY           SKY/WX    TMP DP  RH WIND       PRES   REMARKS
MINNEAPOLIS    CLEAR     78  64  61 SW3       30.04R
INTNL FALLS    CLOUDY    60  58  92 CALM      29.97R
DULUTH         CLEAR     68  63  84 W7        30.01S
RED WING       CLEAR     68  66  94 CALM      30.04R
REDWOOD FALLS  CLEAR     71  64  78 S6        30.05R
MANKATO        CLEAR     73  64  73 S7        30.07R
WORTHINGTON    CLEAR     69  64  84 S6        30.11R
FAIRMONT       CLEAR     70  55  60 S6        30.08R
$$

...SOUTHWEST WISCONSIN...


CITY           SKY/WX    TMP DP  RH WIND       PRES   REMARKS
LA CROSSE      CLEAR     71  66  84 SE6       30.05R
PRAIRIE DU CHI CLEAR     67  64  90 CALM      30.06R
BOSCOBEL       CLEAR     66  65  96 CALM      30.06R FOG
LONE ROCK      CLEAR     67  65  93 W3        30.06R
PLATTEVILLE    CLEAR     67  67  98 N3        30.07R
FORT MC COY    CLEAR     62  62  99 CALM      30.07S
CAMP DOUGLAS   FOG       61  59  94 CALM      30.06R VSB 3/4
MAUSTON-NEW LI CLEAR     64  64  98 CALM      30.05R
VIROQUA        FAIR      65  64  99 CALM      30.08R
WIS DELLS      CLEAR     66  62  89 CALM      30.06R
$$

...ELSEWHERE IN WISCONSIN...


CITY           SKY/WX    TMP DP  RH WIND       PRES   REMARKS
MILWAUKEE      PTCLDY    75  64  68 SW3       30.03R
MADISON        CLEAR     67  65  93 N3        30.04S
GREEN BAY      CLEAR     68  66  93 CALM      30.01R
EAU CLAIRE     CLEAR     69  65  86 CALM      30.04R
BLACK RVR FLS  FAIR      60  60 100 CALM      30.05R
MEDFORD        CLEAR     59  59 100 CALM      30.07R
WAUSAU         CLEAR     66  61  84 CALM      30.04R
WIS RAPIDS     CLEAR     65  61  87 CALM      30.06S
MARSHFIELD     CLEAR     67  61  81 CALM      30.06R
RICE LAKE      CLEAR     65  63  94 CALM      30.06S
$$

...NORTHEAST IOWA...


CITY           SKY/WX    TMP DP  RH WIND       PRES   REMARKS
WATERLOO       CLEAR     67  64  90 NW5       30.06S
DUBUQUE        CLEAR     72  62  71 N5        30.07R
DECORAH        PTCLDY    66  66 100 CALM      30.08R
MASON CITY     CLEAR     65  64  97 CALM      30.11R
CHARLES CITY   CLEAR     66  66 100 NW3       30.09S
OELWEIN        CLEAR     68  64  88 N3        30.09R
$$

...ELSEWHERE IN IOWA...


CITY           SKY/WX    TMP DP  RH WIND       PRES   REMARKS
DES MOINES     CLEAR     75  64  68 CALM      30.08S
IOWA CITY      CLEAR     70  66  87 CALM      30.07R
FORT DODGE     CLEAR     68  66  94 CALM      30.11S
MARSHALLTOWN   CLEAR     66  65  96 CALM      30.07S
CEDAR RAPIDS   CLEAR     69  66  90 NW6       30.06R
$$

...NORTHERN ILLINOIS...


CITY           SKY/WX    TMP DP  RH WIND       PRES   REMARKS
CHICAGO-OHARE  CLOUDY    74  65  73 CALM      30.02S
CHICAGO-MIDWAY CLOUDY    78  61  55 E5        30.02R
MOLINE         CLEAR     70  65  84 CALM      30.04R
ROCKFORD       CLEAR     75  65  70 CALM      30.05R
PEORIA         CLOUDY    73  70  90 CALM      30.04R
$$

NOTE: "FAIR" INDICATES FEW OR NO CLOUDS BELOW 12,000 FEET WITH NO
SIGNIFICANT WEATHER AND/OR OBSTRUCTIONS TO VISIBILITY. WIND
SPEEDS ARE IN MILES-PER-HOUR.




USA.gov is the U.S. government's official web portal to all federal, state and local government web resources and services.